Location: *
(51.5000°N, 0.1100°W)
Time: 16:09:44
(UTC+00:00)

Okean 1-7 - Pass Details

Date: 25 May 2024
Orbit: 579 x 604 km, 82.5° (Epoch: 16 June)

Event Time Altitude Azimuth Distance (km) Brightness Sun altitude
Exits shadow 01:47:50 20° 227° (SW) 1,402 4.3 -13.5°
Maximum altitude 01:50:23 40° 287° (WNW) 890 3.8 -13.4°
Drops below altitude 10° 01:54:30 10° 358° (N) 1,962 6.6 -13.1°
Sets 01:56:51 0° 6° (N) 2,873 7.8 -12.9°
